CW0133 Weather Reports


Display with metric or nautical units.
time (UTC)temp
F
wind
direction
speed
MPH
gust
MPH
rain 1hr
in
rain 24hr
in
rain mn
in
humidity
%
barometer
mb
20260831002003 96 154 5.0 11.0 0.00 0.00 0.00 41 1013.1
20260831001503 96 142 5.0 11.0 0.00 0.00 0.00 41 1013.2
20260831001003 97 132 6.0 13.0 0.00 0.00 0.00 41 1013.1
20260831000503 97 129 6.0 13.0 0.00 0.00 0.00 40 1013.2
20260831000004 97 129 6.0 13.0 0.00 0.00 0.00 40 1013.1
20260830235504 98 129 6.0 13.0 0.00 0.00 0.00 40 1013.1
20260830235004 98 118 5.0 11.0 0.00 0.00 0.00 41 1013.1
20260830234525 98 120 5.0 11.0 0.00 0.00 0.00 40 1013.2
20260830234004 98 124 6.0 12.0 0.00 0.00 0.00 40 1013.3
20260830233504 98 120 7.0 13.0 0.00 0.00 0.00 40 1013.2
20260830233025 98 122 7.0 14.0 0.00 0.00 0.00 39 1013.2
20260830232525 98 131 6.0 14.0 0.00 0.00 0.00 38 1013.2
20260830232004 98 141 6.0 13.0 0.00 0.00 0.00 39 1013.3
20260830231525 99 151 6.0 13.0 0.00 0.00 0.00 38 1013.2
20260830231004 99 168 7.0 13.0 0.00 0.00 0.00 39 1013.2
20260830230504 99 155 7.0 13.0 0.00 0.00 0.00 38 1013.3
20260830230004 100 137 6.0 11.0 0.00 0.00 0.00 38 1013.3
20260830225525 100 136 6.0 12.0 0.00 0.00 0.00 38 1013.3
20260830225004 100 136 6.0 12.0 0.00 0.00 0.00 37 1013.4
20260830224504 100 137 5.0 12.0 0.00 0.00 0.00 37 1013.4
20260830224025 101 151 5.0 11.0 0.00 0.00 0.00 38 1013.4
20260830223504 101 164 4.0 10.0 0.00 0.00 0.00 36 1013.4
20260830223004 101 166 4.0 10.0 0.00 0.00 0.00 37 1013.4
20260830222504 102 166 6.0 13.0 0.00 0.00 0.00 36 1013.5
20260830222004 102 152 6.0 13.0 0.00 0.00 0.00 36 1013.5
20260830221504 102 135 4.0 12.0 0.00 0.00 0.00 35 1013.4
20260830221025 102 126 5.0 14.0 0.00 0.00 0.00 35 1013.5
20260830220504 102 123 6.0 14.0 0.00 0.00 0.00 37 1013.6
20260830220004 102 146 5.0 13.0 0.00 0.00 0.00 36 1013.6
20260830215504 102 150 5.0 11.0 0.00 0.00 0.00 37 1013.7
20260830215004 102 119 6.0 14.0 0.00 0.00 0.00 38 1013.7
20260830214504 101 132 7.0 16.0 0.00 0.00 0.00 38 1013.7
20260830214004 101 150 7.0 16.0 0.00 0.00 0.00 38 1013.9
20260830213504 101 166 7.0 16.0 0.00 0.00 0.00 38 1013.9
20260830213004 101 172 8.0 16.0 0.00 0.00 0.00 38 1013.9
20260830212504 101 164 7.0 16.0 0.00 0.00 0.00 38 1014.0
20260830212004 100 162 6.0 16.0 0.00 0.00 0.00 39 1014.1
20260830211504 100 165 6.0 14.0 0.00 0.00 0.00 39 1014.2
20260830211004 99 152 6.0 13.0 0.00 0.00 0.00 39 1014.2
20260830210525 99 153 6.0 13.0 0.00 0.00 0.00 41 1014.4
20260830210004 100 165 7.0 16.0 0.00 0.00 0.00 39 1014.4
20260830205504 100 172 8.0 16.0 0.00 0.00 0.00 39 1014.6
20260830205025 100 166 8.0 19.0 0.00 0.00 0.00 37 1014.6
20260830204504 101 160 7.0 19.0 0.00 0.00 0.00 38 1014.7
20260830204004 101 139 6.0 14.0 0.00 0.00 0.00 39 1014.8
20260830203504 101 141 7.0 14.0 0.00 0.00 0.00 40 1015.0
20260830203004 100 154 7.0 14.0 0.00 0.00 0.00 40 1015.2
20260830202504 100 142 7.0 14.0 0.00 0.00 0.00 41 1015.2
20260830202025 99 147 7.0 14.0 0.00 0.00 0.00 40 1015.2
20260830201504 99 146 6.0 13.0 0.00 0.00 0.00 43 1015.2
20260830201025 99 139 6.0 12.0 0.00 0.00 0.00 44 1015.3
20260830200504 99 165 7.0 14.0 0.00 0.00 0.00 42 1015.3
20260830200025 100 155 8.0 16.0 0.00 0.00 0.00 43 1015.3
20260830195504 99 147 7.0 16.0 0.00 0.00 0.00 43 1015.5
20260830195004 100 149 6.0 13.0 0.00 0.00 0.00 43 1015.5
20260830194504 100 145 6.0 13.0 0.00 0.00 0.00 43 1015.7
20260830194003 101 153 6.0 14.0 0.00 0.00 0.00 42 1015.8
20260830193504 100 152 6.0 16.0 0.00 0.00 0.00 42 1015.9
20260830193004 100 159 7.0 16.0 0.00 0.00 0.00 43 1015.8
20260830192504 100 161 6.0 14.0 0.00 0.00 0.00 43 1016.0
20260830192004 100 172 6.0 14.0 0.00 0.00 0.00 44 1016.2
20260830191525 99 184 7.0 13.0 0.00 0.00 0.00 46 1016.2
20260830191004 99 172 6.0 14.0 0.00 0.00 0.00 46 1016.2
20260830190504 99 147 5.0 14.0 0.00 0.00 0.00 46 1016.3
20260830190025 99 139 6.0 12.0 0.00 0.00 0.00 46 1016.5
20260830185504 98 141 6.0 14.0 0.00 0.00 0.00 45 1016.5
20260830185004 99 143 6.0 14.0 0.00 0.00 0.00 45 1016.5
20260830184504 99 165 7.0 13.0 0.00 0.00 0.00 47 1016.5
20260830184004 99 174 6.0 13.0 0.00 0.00 0.00 46 1016.6
20260830183503 98 164 6.0 12.0 0.00 0.00 0.00 46 1016.7
20260830183024 98 138 7.0 18.0 0.00 0.00 0.00 47 1017.0
20260830182525 98 127 6.0 18.0 0.00 0.00 0.00 48 1017.0
20260830182024 97 168 7.0 17.0 0.00 0.00 0.00 49 1017.0
20260830181525 97 165 6.0 17.0 0.00 0.00 0.00 50 1017.0
20260830181024 96 124 6.0 14.0 0.00 0.00 0.00 50 1017.1
20260830180504 96 141 7.0 18.0 0.00 0.00 0.00 50 1017.3
20260830180004 95 143 7.0 18.0 0.00 0.00 0.00 52 1017.4
20260830175504 94 164 6.0 13.0 0.00 0.00 0.00 54 1017.4
20260830175004 94 188 7.0 17.0 0.00 0.00 0.00 54 1017.5
20260830174503 94 185 8.0 17.0 0.00 0.00 0.00 55 1017.7
20260830174003 94 178 8.0 16.0 0.00 0.00 0.00 54 1017.9
20260830173524 94 162 6.0 16.0 0.00 0.00 0.00 55 1017.9
20260830173004 93 152 5.0 13.0 0.00 0.00 0.00 55 1018.0
20260830172504 93 168 6.0 13.0 0.00 0.00 0.00 55 1018.1
20260830172003 93 157 7.0 14.0 0.00 0.00 0.00 58 1018.0
20260830171503 93 148 6.0 14.0 0.00 0.00 0.00 56 1018.1
20260830171003 92 165 4.0 13.0 0.00 0.00 0.00 58 1018.0
20260830170503 92 173 6.0 14.0 0.00 0.00 0.00 58 1018.1
20260830170004 92 158 7.0 16.0 0.00 0.00 0.00 57 1018.2
20260830165503 92 136 7.0 16.0 0.00 0.00 0.00 57 1018.1
20260830165003 91 133 6.0 14.0 0.00 0.00 0.00 60 1018.1
20260830164504 90 145 4.0 14.0 0.00 0.00 0.00 63 1018.2
20260830164003 89 159 5.0 13.0 0.00 0.00 0.00 64 1018.2
20260830163504 89 164 6.0 13.0 0.00 0.00 0.00 64 1018.2
20260830163024 89 167 5.0 12.0 0.00 0.00 0.00 66 1018.3
20260830162503 89 172 6.0 12.0 0.00 0.00 0.00 64 1018.4
20260830162003 89 178 6.0 14.0 0.00 0.00 0.00 64 1018.4
20260830161503 88 172 6.0 14.0 0.00 0.00 0.00 64 1018.4
20260830161004 88 146 7.0 13.0 0.00 0.00 0.00 66 1018.2
20260830160504 88 140 7.0 16.0 0.00 0.00 0.00 67 1018.4
20260830160024 87 149 7.0 16.0 0.00 0.00 0.00 67 1018.3
20260830155503 87 163 5.0 13.0 0.00 0.00 0.00 68 1018.3
20260830155003 86 178 5.0 11.0 0.00 0.00 0.00 70 1018.2
20260830154504 86 170 5.0 10.0 0.00 0.00 0.00 72 1018.2
20260830154003 85 168 5.0 11.0 0.00 0.00 0.00 74 1018.2
20260830153503 85 171 6.0 13.0 0.00 0.00 0.00 74 1018.2
20260830153004 84 179 6.0 13.0 0.00 0.00 0.00 74 1018.2
20260830152503 84 187 5.0 12.0 0.00 0.00 0.00 75 1018.1
20260830152004 84 196 5.0 10.0 0.00 0.00 0.00 77 1018.1
20260830151503 83 194 5.0 10.0 0.00 0.00 0.00 78 1018.0
20260830151003 83 183 5.0 11.0 0.00 0.00 0.00 80 1018.1
20260830150503 82 178 6.0 11.0 0.00 0.00 0.00 80 1018.0
20260830150004 82 181 6.0 11.0 0.00 0.00 0.00 80 1018.1
20260830145503 82 188 6.0 11.0 0.00 0.00 0.00 82 1018.1
20260830145003 82 198 6.0 14.0 0.00 0.00 0.00 82 1018.1
20260830144503 81 203 6.0 14.0 0.00 0.00 0.00 83 1018.2
20260830144003 81 201 6.0 13.0 0.00 0.00 0.00 83 1018.3
20260830143503 81 200 6.0 13.0 0.00 0.00 0.00 85 1018.2
20260830143003 80 189 5.0 12.0 0.00 0.00 0.00 87 1018.2
20260830142503 80 180 5.0 12.0 0.00 0.00 0.00 89 1018.3
20260830142024 79 179 5.0 12.0 0.00 0.00 0.00 90 1018.3
20260830141503 79 160 7.0 12.0 0.00 0.00 0.00 91 1018.2
20260830141003 78 152 6.0 12.0 0.00 0.00 0.00 92 1018.3
20260830140503 78 162 5.0 8.0 0.00 0.00 0.00 92 1018.2
20260830140024 78 160 5.0 7.0 0.00 0.00 0.00 93 1018.1
20260830135524 77 166 4.0 8.0 0.00 0.00 0.00 93 1018.1
20260830135003 77 179 4.0 8.0 0.00 0.00 0.00 93 1018.0
20260830134503 76 173 4.0 7.0 0.00 0.00 0.00 93 1017.9
20260830134003 76 163 4.0 7.0 0.00 0.00 0.00 93 1018.0
20260830133503 75 170 4.0 8.0 0.00 0.00 0.00 93 1017.9
20260830133024 75 175 4.0 8.0 0.00 0.00 0.00 93 1017.9
20260830132503 74 180 1.0 5.0 0.00 0.00 0.00 92 1017.8
20260830132003 73 180 1.0 4.0 0.00 0.00 0.00 91 1017.8
20260830131503 73 180 1.0 4.0 0.00 0.00 0.00 91 1017.8
20260830131003 72 180 1.0 2.0 0.00 0.00 0.00 90 1017.7
20260830130503 72 180 0.0 2.0 0.00 0.00 0.00 90 1017.7
20260830130024 72 180 0.0 1.0 0.00 0.00 0.00 90 1017.6
20260830125503 72 180 0.0 1.0 0.00 0.00 0.00 89 1017.6
20260830125003 72 0 0.0 0.0 0.00 0.00 0.00 89 1017.5
20260830124524 72 0 0.0 0.0 0.00 0.00 0.00 89 1017.5
20260830124003 72 0 0.0 0.0 0.00 0.00 0.00 89 1017.4
20260830123524 72 180 0.0 2.0 0.00 0.00 0.00 88 1017.5
20260830123024 72 180 0.0 2.0 0.00 0.00 0.00 88 1017.4
20260830122503 72 180 1.0 2.0 0.00 0.00 0.00 87 1017.4
20260830122003 72 180 1.0 2.0 0.00 0.00 0.00 87 1017.3
20260830121503 72 180 1.0 2.0 0.00 0.00 0.00 87 1017.3
20260830121003 72 180 0.0 2.0 0.00 0.00 0.00 87 1017.3
20260830120524 72 0 0.0 0.0 0.00 0.00 0.00 87 1017.2
20260830120003 72 0 0.0 0.0 0.00 0.00 0.00 87 1017.2
20260830115504 72 0 0.0 0.0 0.00 0.00 0.00 86 1017.2
20260830115025 72 0 0.0 0.0 0.00 0.00 0.00 86 1017.3
20260830114525 72 0 0.0 0.0 0.00 0.00 0.00 86 1017.3
20260830114004 73 0 0.0 0.0 0.00 0.00 0.00 86 1017.3
20260830113504 73 0 0.0 0.0 0.00 0.00 0.00 86 1017.2
20260830113004 73 0 0.0 0.0 0.00 0.00 0.00 86 1017.2
20260830112504 73 0 0.0 0.0 0.00 0.00 0.00 85 1017.2
20260830112004 73 0 0.0 0.0 0.00 0.00 0.00 85 1017.1
20260830111504 73 0 0.0 0.0 0.00 0.00 0.00 85 1017.0
20260830111004 73 180 0.0 1.0 0.00 0.00 0.00 85 1017.0
20260830110504 74 180 0.0 1.0 0.00 0.00 0.00 85 1017.0
20260830110004 74 180 0.0 1.0 0.00 0.00 0.00 84 1017.0
20260830105504 74 180 0.0 1.0 0.00 0.00 0.00 85 1016.9
20260830105004 74 0 0.0 0.0 0.00 0.00 0.00 84 1016.9
20260830104504 74 0 0.0 0.0 0.00 0.00 0.00 84 1016.8
20260830104004 74 0 0.0 0.0 0.00 0.00 0.00 84 1016.7
20260830103504 75 180 0.0 2.0 0.00 0.00 0.00 83 1016.7
20260830103004 75 180 0.0 2.0 0.00 0.00 0.00 84 1016.6
20260830102504 75 180 0.0 1.0 0.00 0.00 0.00 83 1016.6
20260830102025 75 180 0.0 1.0 0.00 0.00 0.00 83 1016.7
20260830101504 75 180 0.0 1.0 0.00 0.00 0.00 83 1016.7
20260830101004 76 180 0.0 1.0 0.00 0.00 0.00 83 1016.7
20260830100504 76 180 0.0 1.0 0.00 0.00 0.00 83 1016.7
20260830100004 76 180 0.0 2.0 0.00 0.00 0.00 83 1016.8
20260830095525 76 180 1.0 2.0 0.00 0.00 0.00 82 1016.7
20260830095004 76 180 1.0 2.0 0.00 0.00 0.00 82 1016.7
20260830094504 76 180 1.0 2.0 0.00 0.00 0.00 82 1016.7
20260830094004 76 180 1.0 2.0 0.00 0.00 0.00 82 1016.7
20260830093504 77 180 1.0 2.0 0.00 0.00 0.00 81 1016.7
20260830093004 77 180 1.0 2.0 0.00 0.00 0.00 81 1016.6
20260830092525 77 180 1.0 2.0 0.00 0.00 0.00 81 1016.6
20260830092004 77 180 1.0 4.0 0.00 0.00 0.00 80 1016.6
20260830091504 77 180 2.0 4.0 0.00 0.00 0.00 80 1016.6
20260830091004 77 180 2.0 4.0 0.00 0.00 0.00 80 1016.6
20260830090504 78 180 1.0 4.0 0.00 0.00 0.00 80 1016.7
20260830090004 78 180 0.0 2.0 0.00 0.00 0.00 80 1016.8
20260830085504 78 180 1.0 4.0 0.00 0.00 0.00 80 1016.7
20260830085004 78 180 2.0 4.0 0.00 0.00 0.00 80 1016.7
20260830084504 78 180 2.0 5.0 0.00 0.00 0.00 80 1016.7
20260830084003 78 180 2.0 6.0 0.00 0.00 0.00 80 1016.8
20260830083503 78 176 2.0 6.0 0.00 0.00 0.00 79 1016.8
20260830083004 78 171 2.0 6.0 0.00 0.00 0.00 79 1016.7
20260830082504 78 171 2.0 5.0 0.00 0.00 0.00 79 1016.8
20260830082004 78 171 2.0 5.0 0.00 0.00 0.00 79 1016.8
20260830081504 79 171 2.0 5.0 0.00 0.00 0.00 78 1016.8
20260830081025 79 173 2.0 6.0 0.00 0.00 0.00 78 1016.9
20260830080504 79 176 2.0 6.0 0.00 0.00 0.00 78 1016.9
20260830080004 79 178 2.0 6.0 0.00 0.00 0.00 78 1017.0
20260830075504 79 175 2.0 6.0 0.00 0.00 0.00 77 1017.1
20260830075004 79 168 2.0 6.0 0.00 0.00 0.00 77 1017.1
20260830074504 79 160 2.0 6.0 0.00 0.00 0.00 77 1017.1
20260830074004 80 159 4.0 7.0 0.00 0.00 0.00 77 1017.1
20260830073504 80 169 4.0 7.0 0.00 0.00 0.00 77 1017.1
20260830073004 80 171 4.0 6.0 0.00 0.00 0.00 77 1017.2
20260830072524 80 165 4.0 6.0 0.00 0.00 0.00 76 1017.2
20260830072003 80 165 4.0 6.0 0.00 0.00 0.00 76 1017.2
20260830071524 80 161 4.0 6.0 0.00 0.00 0.00 76 1017.2
20260830071003 80 158 4.0 6.0 0.00 0.00 0.00 76 1017.3
20260830070524 80 160 4.0 6.0 0.00 0.00 0.00 75 1017.3
20260830070003 81 167 4.0 6.0 0.00 0.00 0.00 75 1017.4
20260830065503 81 173 4.0 6.0 0.00 0.00 0.00 75 1017.4
20260830065024 81 172 4.0 7.0 0.00 0.00 0.00 75 1017.4
20260830064503 81 165 4.0 7.0 0.00 0.00 0.00 74 1017.4
20260830064004 81 164 4.0 7.0 0.00 0.00 0.00 74 1017.3
20260830063504 81 163 4.0 8.0 0.00 0.00 0.00 74 1017.1
20260830063004 82 158 4.0 8.0 0.00 0.00 0.00 74 1017.2
20260830062504 82 167 5.0 11.0 0.00 0.00 0.00 73 1017.1
20260830062004 82 174 5.0 11.0 0.00 0.00 0.00 73 1017.2
20260830061525 82 169 5.0 11.0 0.00 0.00 0.00 73 1017.2
20260830061003 82 170 6.0 10.0 0.00 0.00 0.00 73 1017.1
20260830060503 82 171 5.0 10.0 0.00 0.00 0.00 72 1017.1
20260830060004 82 169 5.0 10.0 0.00 0.00 0.00 72 1017.0
20260830055525 83 167 5.0 10.0 0.00 0.00 0.00 72 1017.1
20260830055003 83 170 4.0 8.0 0.00 0.00 0.00 72 1017.0
20260830054503 83 168 5.0 10.0 0.00 0.00 0.00 72 1017.0
20260830054024 83 158 4.0 10.0 0.00 0.00 0.00 71 1017.0
20260830053503 83 158 4.0 8.0 0.00 0.00 0.00 71 1017.0
20260830053003 83 172 5.0 10.0 0.00 0.00 0.00 71 1017.0
20260830052525 84 172 6.0 10.0 0.00 0.00 0.00 70 1017.1
20260830052003 84 169 5.0 8.0 0.00 0.00 0.00 70 1017.1
20260830051503 84 168 5.0 8.0 0.00 0.00 0.00 70 1017.1
20260830051003 84 166 5.0 8.0 0.00 0.00 0.00 69 1017.0
20260830050503 84 165 5.0 11.0 0.00 0.00 0.00 69 1017.1
20260830050004 84 164 5.0 11.0 0.00 0.00 0.00 69 1016.9
20260830045504 85 168 5.0 11.0 0.00 0.00 0.00 68 1017.1
20260830045003 85 168 4.0 10.0 0.00 0.00 0.00 68 1017.0
20260830044524 85 163 4.0 7.0 0.00 0.00 0.00 68 1017.0
20260830044004 85 159 5.0 12.0 0.00 0.00 0.00 67 1017.0
20260830043504 85 157 5.0 12.0 0.00 0.00 0.00 68 1017.1
20260830043003 86 157 5.0 10.0 0.00 0.00 0.00 67 1017.1
20260830042504 86 154 5.0 10.0 0.00 0.00 0.00 67 1017.0
20260830042003 86 161 5.0 10.0 0.00 0.00 0.00 66 1017.1
20260830041503 86 166 5.0 11.0 0.00 0.00 0.00 66 1017.1
20260830041003 86 160 6.0 11.0 0.00 0.00 0.00 66 1017.1
20260830040504 86 163 6.0 11.0 0.00 0.00 0.00 65 1017.0
20260830040003 86 156 6.0 12.0 0.00 0.00 0.00 65 1017.0
20260830035504 87 150 5.0 12.0 0.00 0.00 0.00 65 1017.0
20260830035003 87 157 6.0 13.0 0.00 0.00 0.00 64 1016.8
20260830034503 87 150 6.0 13.0 0.00 0.00 0.00 64 1016.9
20260830034003 87 138 6.0 16.0 0.00 0.00 0.00 63 1017.0
20260830033503 87 139 6.0 16.0 0.00 0.00 0.00 63 1016.9
20260830033003 88 141 5.0 19.0 0.00 0.00 0.00 63 1016.8
20260830032503 88 137 6.0 19.0 0.00 0.00 0.00 62 1016.8
20260830032003 88 137 6.0 12.0 0.00 0.00 0.00 62 1016.8
20260830031503 88 147 5.0 11.0 0.00 0.00 0.00 62 1016.8
20260830031004 88 149 6.0 13.0 0.00 0.00 0.00 61 1016.7
20260830030503 88 140 6.0 13.0 0.00 0.00 0.00 61 1016.7
20260830030004 88 134 6.0 13.0 0.00 0.00 0.00 60 1016.5
20260830025524 88 138 5.0 12.0 0.00 0.00 0.00 59 1016.5
20260830025003 88 140 6.0 14.0 0.00 0.00 0.00 58 1016.3
20260830024503 88 130 6.0 18.0 0.00 0.00 0.00 57 1016.2
20260830024003 88 123 5.0 18.0 0.00 0.00 0.00 57 1016.3
20260830023503 88 120 5.0 11.0 0.00 0.00 0.00 57 1016.1
20260830023004 88 118 6.0 12.0 0.00 0.00 0.00 57 1015.9
20260830022524 88 117 6.0 12.0 0.00 0.00 0.00 56 1015.8
20260830022003 88 118 5.0 11.0 0.00 0.00 0.00 57 1015.7
20260830021503 88 122 4.0 10.0 0.00 0.00 0.00 56 1015.7
20260830021003 88 118 4.0 8.0 0.00 0.00 0.00 56 1015.5
20260830020503 88 112 4.0 12.0 0.00 0.00 0.00 56 1015.5
20260830020003 88 119 4.0 12.0 0.00 0.00 0.00 56 1015.2
20260830015503 89 129 2.0 6.0 0.00 0.00 0.00 56 1015.2
20260830015003 89 135 1.0 5.0 0.00 0.00 0.00 56 1015.2
20260830014503 90 144 1.0 2.0 0.00 0.00 0.00 55 1015.1
20260830014024 90 144 1.0 2.0 0.00 0.00 0.00 54 1015.0
20260830013503 91 144 1.0 2.0 0.00 0.00 0.00 54 1014.8
20260830013003 92 144 1.0 2.0 0.00 0.00 0.00 53 1014.8
20260830012503 92 144 1.0 2.0 0.00 0.00 0.00 52 1014.7
20260830012003 93 144 0.0 2.0 0.00 0.00 0.00 51 1014.8
20260830011503 93 144 1.0 2.0 0.00 0.00 0.00 50 1014.7
20260830011003 94 144 2.0 5.0 0.00 0.00 0.00 50 1014.7
20260830010503 94 144 2.0 5.0 0.00 0.00 0.00 47 1014.7
20260830010003 94 144 2.0 5.0 0.00 0.00 0.00 46 1014.7
20260830005503 94 138 2.0 5.0 0.00 0.00 0.00 46 1014.7
20260830005003 95 135 2.0 6.0 0.00 0.00 0.00 46 1014.7
20260830004503 95 136 4.0 6.0 0.00 0.00 0.00 46 1014.8
20260830004003 95 140 4.0 6.0 0.00 0.00 0.00 45 1014.7
20260830003524 95 145 4.0 8.0 0.00 0.00 0.00 44 1014.8
20260830003003 96 140 5.0 11.0 0.00 0.00 0.00 44 1014.7
20260830002503 96 139 5.0 11.0 0.00 0.00 0.00 44 1014.7